Guymon, OK

10:09 AM CDT on September 26, 2016 (GMT -0500)
Guymon Municipal

Weather History for KGUY - March, 2014

Change the Weather History Date:

Monday, March 31, 2014

  Actual Average Record
Temperature  
Mean Temperature 59 °F 51 °F  
Max Temperature 73 °F 66 °F 89 °F (2012)
Min Temperature 44 °F 36 °F 24 °F (2009)
Degree Days  
Heating Degree Days 6 14  
Month to date heating degree days 605 581  
Since 1 July heating degree days 4171 4048  
Cooling Degree Days 0 0  
Month to date cooling degree days 1 2  
Year to date cooling degree days 1 2  
Growing Degree Days 10 (Base 50)    
Moisture  
Dew Point 12 °F    
Average Humidity 21    
Maximum Humidity 37    
Minimum Humidity 5    
Precipitation  
Precipitation 0.00 in 0.05 in 0.24 in (2007)
Month to date precipitation 0.21 1.43  
Year to date precipitation 0.55 2.30  
Snow  
Snow 0.00 in - - ()
Month to date snowfall 1.5  
Since 1 July snowfall 14.2  
Snow Depth 0.00 in    
Sea Level Pressure  
Sea Level Pressure 29.71 in    
Wind  
Wind Speed 16 mph (NW)    
Max Wind Speed 28 mph    
Max Gust Speed 37 mph    
Visibility 10 miles    
Events      
T = Trace of Precipitation, MM = Missing Value Source: NWS Daily Summary

Daily Weather History Graph

Daily Weather History Graph

Search for Another Location

Airport or City:

Trip Planner

Search our weather history database for the weather conditions in past years. The results will help you decide how hot, cold, wet, or windy it might be!

Date:

Astronomy

Mar. 31, 2014 Rise Set
Actual Time 7:33 AM CDT 8:07 PM CDT
Civil Twilight 7:07 AM CDT 8:33 PM CDT
Nautical Twilight 6:36 AM CDT 9:04 PM CDT
Astronomical Twilight 6:05 AM CDT 9:35 PM CDT
Moon 7:59 AM CDT (3/31) 9:25 PM CDT (3/31)
Length of Visible Light 13h 26m
Length of Day
12h 34m
New Moon, 1% of the Moon is Illuminated
Mar 31
New Moon
Apr 7
First Quarter
Apr 15
Full
Apr 22
Last Quarter
Apr 29
New

Hourly Weather History & Observations

Time (CDT) Temp. Dew Point Humidity Pressure Visibility Wind Dir Wind Speed Gust Speed Precip Events Conditions
12:53 AM 68.0 °F 34.0 °F 28% 29.49 in 10.0 mi SSW 20.7 mph 31.1 mph N/A   Clear
1:53 AM 64.0 °F 37.0 °F 37% 29.49 in 10.0 mi SSW 19.6 mph - N/A   Clear
2:53 AM 61.0 °F 33.1 °F 35% 29.49 in 10.0 mi SSW 17.3 mph - N/A   Clear
3:53 AM 60.1 °F 12.0 °F 15% 29.51 in 10.0 mi SW 18.4 mph - N/A   Clear
4:53 AM 59.0 °F 9.0 °F 14% 29.53 in 10.0 mi WSW 18.4 mph - N/A   Clear
5:53 AM 55.9 °F 10.9 °F 17% 29.55 in 10.0 mi SW 19.6 mph - N/A   Clear
6:53 AM 53.1 °F 12.9 °F 20% 29.60 in 10.0 mi SW 16.1 mph - N/A   Clear
7:53 AM 48.0 °F 15.1 °F 27% 29.65 in 10.0 mi WSW 8.1 mph - N/A   Clear
8:53 AM 52.0 °F 15.1 °F 23% 29.68 in 10.0 mi West 9.2 mph - N/A   Clear
9:53 AM 62.1 °F 7.0 °F 11% 29.69 in 10.0 mi WNW 19.6 mph 28.8 mph N/A   Clear
10:53 AM 64.9 °F 5.0 °F 9% 29.71 in 10.0 mi NW 20.7 mph 32.2 mph N/A   Clear
11:53 AM 66.0 °F 5.0 °F 9% 29.71 in 10.0 mi NW 21.9 mph 31.1 mph N/A   Mostly Cloudy
12:53 PM 68.0 °F 3.0 °F 8% 29.72 in 10.0 mi WNW 13.8 mph 27.6 mph N/A   Clear
1:53 PM 71.1 °F 3.0 °F 7% 29.71 in 10.0 mi NW 18.4 mph 25.3 mph N/A   Clear
2:53 PM 71.1 °F 1.9 °F 7% 29.72 in 10.0 mi NW 18.4 mph 21.9 mph N/A   Clear
3:53 PM 72.0 °F -5.1 °F 5% 29.70 in 10.0 mi NNW 19.6 mph 33.4 mph N/A   Partly Cloudy
4:53 PM 72.0 °F -0.9 °F 6% 29.71 in 10.0 mi NW 19.6 mph 25.3 mph N/A   Overcast
5:53 PM 72.0 °F -0.9 °F 6% 29.72 in 10.0 mi NW 15.0 mph - N/A   Clear
6:53 PM 70.0 °F -0.9 °F 6% 29.74 in 10.0 mi North 11.5 mph - N/A   Clear
7:53 PM 63.0 °F 3.0 °F 9% 29.79 in 10.0 mi NNE 8.1 mph - N/A   Clear
8:53 PM 60.1 °F 12.9 °F 16% 29.84 in 10.0 mi NNE 12.7 mph - N/A   Clear
9:12 PM 57.0 °F 19.9 °F 24% 29.92 in 9.0 mi NE 21.9 mph 31.1 mph N/A   Mostly Cloudy
9:53 PM 54.0 °F 19.9 °F 26% 29.88 in 10.0 mi NE 21.9 mph 31.1 mph N/A   Overcast
10:35 PM 51.1 °F 21.9 °F 32% 29.99 in 10.0 mi NE 15.0 mph 23.0 mph N/A   Overcast
10:53 PM 50.0 °F 21.0 °F 32% 29.93 in 10.0 mi NE 18.4 mph 25.3 mph N/A   Overcast
11:53 PM 46.9 °F 21.9 °F 37% 29.96 in 10.0 mi NE 15.0 mph 25.3 mph N/A   Clear